パンスターズ彗星

P/2015 B1 ( PanSTARRS )

English version
Home page
Updated on March 21, 2016

---------------------------------------------------------------------

・ プロフィール

発見日 2015年1月19日
発見光度 19.8等
発見者 Pan-STARRS 1 telescope (Haleakala)

・ 軌道要素

Epoch 2015 Sept. 15.0 TT = JDT 2457280.5
T 2015 Sept. 21.59863 TT                                MPCW
q   5.9750727            (2000.0)            P               Q
n   0.03288461     Peri.  188.41853     -0.99868797     +0.03658897
a   9.6488215      Node   353.35583     -0.00381842     -0.75089026
e   0.3807458      Incl.   18.03806     -0.05106628     -0.65941267
P  29.97
From 90 observations 2014 Nov. 30-2016 Mar. 4, mean residual 0".3.

・ 星図

・ 光度変化

        m1 = 8.0 + 5 logΔ + 10.0 log r

---------------------------------------------------------------------

軌道要素はM.P.E.C. 2016-E132に掲載されたものです。
星図はステラナビゲータ Ver.8 (アストロアーツ) で作成したものです。
光度グラフはComet for Windowsで作成したものです。

---------------------------------------------------------------------

Copyright(C) Seiichi Yoshida (comet@aerith.net). All rights reserved.